Belize, Belize

8:10 AM CST on May 30, 2017 (GMT -0600)
Philip S W Goldson International

Weather History for MZBZ - February, 2014

Change the Weather History Date:

Friday, February 7, 2014

  Actual Average Record
Temperature  
Mean Temperature 77 °F -  
Max Temperature 84 °F 83 °F 87 °F (2003)
Min Temperature 70 °F - 57 °F (2016)
Cooling Degree Days 12    
Growing Degree Days 27 (Base 50)    
Moisture  
Dew Point 72 °F    
Average Humidity 81    
Maximum Humidity 95    
Minimum Humidity 67    
Precipitation  
Precipitation 0.00 in 0.09 in - ()
Sea Level Pressure  
Sea Level Pressure 30.00 in    
Wind  
Wind Speed 2 mph ()    
Max Wind Speed 8 mph    
Max Gust Speed -    
Visibility 8.5 miles    
Events Rain    
Averages and records for this station are not official NWS values.
T = Trace of Precipitation, MM = Missing Value Source: Averaged Metar Reports

Daily Weather History Graph

Daily Weather History Graph

Search for Another Location

Airport or City:

Trip Planner

Search our weather history database for the weather conditions in past years. The results will help you decide how hot, cold, wet, or windy it might be!

Date:

Astronomy

Feb. 07, 2014 Rise Set
Actual Time 6:23 AM CST 5:51 PM CST
Civil Twilight 6:01 AM CST 6:13 PM CST
Nautical Twilight 5:35 AM CST 6:39 PM CST
Astronomical Twilight 5:09 AM CST 7:05 PM CST
Moon 12:11 PM CST (2/7) 12:32 AM CST (2/7)
Length of Visible Light 12h 12m
Length of Day
11h 28m
First Quarter, 59% of the Moon is Illuminated
Feb 7
First Quarter
Feb 14
Full
Feb 22
Last Quarter
Mar 1
New
Mar 8
First Quarter

Hourly Weather History & Observations

Time (CST) Temp. Heat Index Dew Point Humidity Pressure Visibility Wind Dir Wind Speed Gust Speed Precip Events Conditions
12:00 AM 74 °F - 72 °F 91% 30.01 in 12 mi Calm Calm - -   Scattered Clouds
3:00 AM 72 °F - 71 °F 95% 29.97 in 12 mi Calm Calm - -   Scattered Clouds
5:00 AM 73.4 °F - 71.6 °F 94% 29.95 in 6.2 mi Calm Calm - N/A   Partly Cloudy
6:00 AM 71 °F - 70 °F 95% 29.99 in 12 mi Calm Calm - -   Scattered Clouds
6:00 AM 71.6 °F - 69.8 °F 94% 29.98 in 6.2 mi Calm Calm - N/A   Partly Cloudy
7:00 AM 71.6 °F - 69.8 °F 94% 30.01 in 6.2 mi Calm Calm - N/A   Scattered Clouds
8:00 AM 80.6 °F 86.2 °F 75.2 °F 84% 30.01 in 6.2 mi Calm Calm - N/A   Partly Cloudy
9:00 AM 81 °F - 72 °F 69% 30.05 in 14 mi ESE 4.6 mph - -   Partly Cloudy
9:00 AM 80.6 °F 85.4 °F 73.4 °F 79% 30.04 in 6.2 mi ESE 4.6 mph - N/A   Scattered Clouds
10:00 AM 82.4 °F 87.2 °F 71.6 °F 70% 30.05 in 6.2 mi ESE 4.6 mph - N/A   Scattered Clouds
11:00 AM 80.6 °F 85.4 °F 73.4 °F 79% 30.04 in 6.2 mi ESE 3.5 mph - N/A   Scattered Clouds
12:00 PM 82 °F - 73 °F 67% 30.03 in 14 mi ESE 5.8 mph - - Rain Light Rain Showers
12:00 PM 82.4 °F 88.2 °F 73.4 °F 74% 30.02 in 6.2 mi ESE 5.8 mph - N/A   Scattered Clouds
1:00 PM 84.2 °F 90.9 °F 73.4 °F 70% 29.99 in 6.2 mi ENE 6.9 mph - N/A   Scattered Clouds
2:00 PM 82.4 °F 88.2 °F 73.4 °F 74% 29.96 in 6.2 mi East 6.9 mph - N/A   Scattered Clouds
3:00 PM 80 °F - 73 °F 74% 29.96 in 14 mi East 4.6 mph - -   Partly Cloudy
3:00 PM 80.6 °F 85.4 °F 73.4 °F 79% 29.96 in 6.2 mi East 4.6 mph - N/A   Scattered Clouds
4:00 PM 80.6 °F 85.4 °F 73.4 °F 79% 29.96 in 6.2 mi East 5.8 mph - N/A   Scattered Clouds
5:00 PM 80.6 °F 84.6 °F 71.6 °F 74% 29.95 in 6.2 mi East 8.1 mph - N/A   Partly Cloudy
6:00 PM 79 °F - 73 °F 78% 29.99 in 12 mi East 3.5 mph - -   Scattered Clouds
6:00 PM 78.8 °F - 73.4 °F 83% 29.98 in 6.2 mi East 3.5 mph - N/A   Partly Cloudy
7:00 PM 78.8 °F - 73.4 °F 83% 29.98 in 6.2 mi East 3.5 mph - N/A   Partly Cloudy
9:00 PM 75 °F - 72 °F 88% 30.03 in 12 mi ESE 2.3 mph - -   Scattered Clouds